sat.trackr.live / text

‹ back to catalog

FLOCK 4BE-15

NORAD 60491 · 2024-149Z

PAYLOAD ACTIVE UNKNOWN

§ Identity

Operator
Country
US
Launch date
2024-08-16
Launch site
AFWTR
Launch vehicle
Mass (kg)
RCS (m²)

Purposes: earth_obs

External: N2YO · Heavens-Above · Gunter

§ Orbital elements

Epoch: 2026-06-17T19:01:24.148704Z

Period
92.32 min
Inclination
97.3684°
Eccentricity
0.0003174
Mean motion
15.59802576 rev/d
Perigee alt
386.1 km
Apogee alt
390.4 km
Semi-major
6,766.4 km
B*
9.3730e-4
RAAN
254.1953°
Arg perigee
238.0728°
Mean anomaly
122.0220°
Rev number
10,252

§ Raw data

FLOCK 4BE-151 60491U 24149Z   26168.79264061  .00075620  00000+0  93730-3 0  99922 60491  97.3684 254.1953 0003174 238.0728 122.0220 15.59802576102520

JSON: /api/v1/satellites/60491 · /tle

For live sub-satellite position, see the globe view (requires WebGL).

§ Visibility from observer

Set your observer location to see the next 7 days of passes ≥ 10°. The values pass through the URL so the page stays shareable.

No JS? Fill the form by hand. The geolocation button needs JavaScript.